Regional Weather Roundup
Issued by NWS Glasgow, MT

Home | Current Version | Previous Version | Text Only | Print | Product List | Glossary On
Versions: 1 2 3 4 5 6 7 8 9 10 11 12 13 14 15 16 17 18 19 20 21 22 23 24 25 26 27 28
000
ASUS45 KGGW 030115
RWRGGW
HOURLY REGIONAL WEATHER ROUNDUP FOR NORTHEAST MONTANA
NATIONAL WEATHER SERVICE GLASGOW MONTANA
600 PM MST FRI DEC 02 2016

NOTE: "FAIR" INDICATES FEW OR NO CLOUDS BELOW 12,000 FEET WITH NO
SIGNIFICANT WEATHER AND/OR OBSTRUCTIONS TO VISISBILITY.

NORTHEAST MONTANA


CITY           SKY/WX    TMP DP  RH WIND       PRES   REMARKS
GLASGOW        CLEAR     25  22  88 S9        30.00F
PLENTYWOOD       N/A     30  29  96 S9          N/A
WOLF POINT     CLEAR     26  22  84 CALM      30.05F
JORDAN           N/A     29  19  66 CALM      30.01F
WINNETT          N/A     32  18  56 SW7G20      N/A
SIDNEY         CLEAR     21  19  92 SW5       30.10F
GLENDIVE       CLEAR     27  24  89 S5        30.10F
MALTA            N/A     31  24  75 S7          N/A
SCOBEY           N/A     21  13  71 CALM      30.00F

FORT PECK REPORTS


CITY           SKY/WX    TMP DP  RH WIND       PRES   REMARKS
FORT PECK        N/A     43  30  61 S9          N/A
THE PINES        N/A     37  28  70 S2          N/A

SOUTHEAST MONTANA


CITY           SKY/WX    TMP DP  RH WIND       PRES   REMARKS
BILLINGS       CLEAR     35  17  47 W14       30.03F
MILES CITY     CLEAR     30  25  81 S10       30.08F
BAKER          CLEAR     19  16  88 SE5       30.12F
LIVINGSTON     CLEAR     28  15  58 W17G25    30.02F

CENTRAL MONTANA


CITY           SKY/WX    TMP DP  RH WIND       PRES   REMARKS
HAVRE          CLEAR     32  22  66 SW20      29.94F
LEWISTOWN      CLEAR     25  16  68 SW13      29.97F
GREAT FALLS    CLOUDY    28  18  66 SW16      29.97R
CUT BANK       CLOUDY    33  19  56 W32G41    29.88R
HELENA         CLOUDY    33  14  45 W7        30.08S
BUTTE          CLOUDY    27  10  49 W6        30.07F
BOZEMAN        CLEAR     24  17  74 S7        30.09F

WESTERN MONTANA


CITY           SKY/WX    TMP DP  RH WIND       PRES   REMARKS
MISSOULA       CLOUDY    33  24  69 MISG      30.17F
KALISPELL      NOT AVBL

NORTH DAKOTA


CITY           SKY/WX    TMP DP  RH WIND       PRES   REMARKS
WILLISTON      CLOUDY    29  25  85 S5        30.11F
DICKINSON      PTCLDY    25  23  92 SW8       30.11F
MINOT          CLOUDY    27  23  85 SE7       30.15F
BISMARCK       CLOUDY    25  21  85 S10       30.23F

SOUTHERN SASKATCHEWAN


CITY           SKY/WX    TMP DP  RH WIND       PRES   REMARKS
REGINA         CLOUDY    27  23  86 SE12      30.03F
ESTEVAN        FLURRIES  27  27 100 SE3       30.09F
SWIFT CURRENT  CLEAR     21  21 100 S14       29.89F





USA.gov is the U.S. government's official web portal to all federal, state and local government web resources and services.